Weather History for Chicopee, MA

Change the Weather History Date:

Sunday, January 13, 2013

  Actual Average Record
Temperature  
Mean Temperature 40 °F -  
Max Temperature 46 °F 29 °F 48 °F (2006)
Min Temperature 35 °F 15 °F 5 °F (2001)
Degree Days  
Heating Degree Days 24    
Moisture  
Dew Point 41 °F    
Average Humidity 99    
Maximum Humidity 100    
Minimum Humidity 93    
Precipitation  
Precipitation 0.01 in - - ()
Sea Level Pressure  
Sea Level Pressure 30.09 in    
Wind  
Wind Speed 3 mph (South)    
Max Wind Speed 10 mph    
Max Gust Speed -    
Visibility 1 miles    
Events Fog    
Averages and records for this station are not official NWS values.
T = Trace of Precipitation, MM = Missing Value Source: NWS Daily Summary

Daily Weather History Graph

Daily Weather History Graph

Search for Another Location

Airport:

Trip Planner

Search our weather history database for the weather conditions in past years. The results will help you decide how hot, cold, wet, or windy it might be!

Date:

Astronomy

Jan. 13, 2013 Rise Set
Actual Time 7:16 AM EST 4:41 PM EST
Civil Twilight 6:45 AM EST 5:12 PM EST
Nautical Twilight 6:11 AM EST 5:47 PM EST
Astronomical Twilight 5:37 AM EST 6:20 PM EST
Moon 8:10 AM EST (1/13) 7:20 PM EST (1/13)
Length of Visible Light 10h 26m
Length of Day
9h 24m
Waxing Crescent, 5% of the Moon is Illuminated
Jan 13
Waxing Crescent
Jan 18
First Quarter
Jan 26
Full
Feb 3
Last Quarter
Feb 10
New

Hourly Weather History & Observations

Time (EST) Temp. Windchill Dew Point Humidity Pressure Visibility Wind Dir Wind Speed Gust Speed Precip Events Conditions
12:09 AM 35.6 °F - 35.6 °F 100% 30.14 in 0.5 mi Calm Calm - N/A Fog Fog
12:37 AM 35.6 °F - 35.6 °F 100% 30.14 in 0.8 mi Calm Calm - N/A   Mist
12:55 AM 36.1 °F - 35.8 °F 99% 30.14 in 0.8 mi Calm Calm - 0.01 in   Mist
1:04 AM 37.4 °F - 35.6 °F 93% 30.14 in 0.5 mi Calm Calm - N/A Fog Fog
1:41 AM 37.4 °F - 37.4 °F 100% 30.15 in 0.5 mi Calm Calm - N/A Fog Fog
1:55 AM 36.9 °F - 36.3 °F 98% 30.15 in 0.5 mi Calm Calm - N/A Fog Fog
1:56 AM 37.4 °F - 35.6 °F 93% 30.15 in 0.5 mi Calm Calm - N/A Fog Fog
2:02 AM 37.4 °F - 35.6 °F 93% 30.14 in 0.5 mi Calm Calm - N/A Fog Fog
2:15 AM 37.4 °F 34.9 °F 37.4 °F 100% 30.14 in 0.8 mi SSE 3.5 mph - N/A   Mist
2:16 AM 37.4 °F 34.9 °F 37.4 °F 100% 30.14 in 0.8 mi SSE 3.5 mph - N/A   Mist
2:29 AM 37.4 °F 34.9 °F 37.4 °F 100% 30.15 in 0.5 mi WSW 3.5 mph - N/A Fog Fog
2:46 AM 37.4 °F - 35.6 °F 93% 30.15 in 0.5 mi Calm Calm - N/A Fog Fog
2:55 AM 36.5 °F - 36.1 °F 99% 30.14 in 0.5 mi Calm Calm - N/A Fog Fog
3:01 AM 35.6 °F - 35.6 °F 100% 30.14 in 0.5 mi Calm Calm - N/A Fog Fog
3:17 AM 37.4 °F - 35.6 °F 93% 30.13 in 0.5 mi Calm Calm - N/A Fog Fog
3:22 AM 35.6 °F - 35.6 °F 100% 30.13 in 0.5 mi Calm Calm - N/A Fog Fog
3:24 AM 35.6 °F - 35.6 °F 100% 30.13 in 0.5 mi Calm Calm - N/A Fog Fog
3:30 AM 35.6 °F - 35.6 °F 100% 30.13 in 0.5 mi Calm Calm - N/A Fog Fog
3:37 AM 35.6 °F - 35.6 °F 100% 30.13 in 0.5 mi Calm Calm - N/A Fog Fog
3:55 AM 36.3 °F - 35.8 °F 98% 30.13 in 0.5 mi Calm Calm - N/A Fog Fog
4:10 AM 35.6 °F 32.8 °F 35.6 °F 100% 30.11 in 0.5 mi ESE 3.5 mph - N/A Fog Fog
4:20 AM 37.4 °F - 37.4 °F 100% 30.09 in 0.5 mi Calm Calm - N/A Fog Fog
4:26 AM 37.4 °F - 37.4 °F 100% 30.10 in 0.5 mi Calm Calm - N/A Fog Fog
4:41 AM 35.6 °F - 35.6 °F 100% 30.11 in 0.5 mi Calm Calm - N/A Fog Fog
4:55 AM 36.1 °F - 35.6 °F 98% 30.11 in 0.5 mi Calm Calm - N/A Fog Fog
5:04 AM 35.6 °F - 35.6 °F 100% 30.11 in 0.5 mi Calm Calm - N/A Fog Fog
5:23 AM 35.6 °F - 35.6 °F 100% 30.12 in 0.2 mi Calm Calm - N/A Fog Fog
5:32 AM 35.6 °F - 35.6 °F 100% 30.12 in 0.2 mi Calm Calm - N/A Fog Fog
5:55 AM 35.6 °F - 35.1 °F 98% 30.12 in 0.2 mi Calm Calm - N/A Fog Fog
6:01 AM 35.6 °F - 35.6 °F 100% 30.12 in 0.2 mi Calm Calm - N/A Fog Fog
6:50 AM 35.6 °F - 35.6 °F 100% 30.13 in 0.2 mi Calm Calm - N/A Fog Fog
6:55 AM 35.8 °F - 35.2 °F 98% 30.14 in 0.2 mi Calm Calm - N/A Fog Fog
7:07 AM 35.6 °F - 35.6 °F 100% 30.13 in 0.2 mi Calm Calm - N/A Fog Fog
7:47 AM 35.6 °F - 35.6 °F 100% 30.14 in 0.2 mi Calm Calm - N/A Fog Fog
7:55 AM 36.3 °F - 35.8 °F 98% 30.14 in 0.2 mi Calm Calm - N/A Fog Fog
8:37 AM 37.4 °F - 37.4 °F 100% 30.14 in 0.2 mi Calm Calm - N/A Fog Fog
8:55 AM 38.1 °F - 37.6 °F 98% 30.14 in 0.2 mi Calm Calm - N/A Fog Fog
8:57 AM 37.4 °F - 37.4 °F 100% 30.14 in 0.2 mi Calm Calm - N/A Fog Fog
9:12 AM 39.2 °F - 37.4 °F 93% 30.14 in 0.2 mi Calm Calm - N/A Fog Fog
9:19 AM 39.2 °F - 37.4 °F 93% 30.14 in 0.2 mi Calm Calm - N/A Fog Fog
9:32 AM 39.2 °F - 39.2 °F 100% 30.15 in 0.2 mi Calm Calm - N/A Fog Fog
9:45 AM 39.2 °F - 39.2 °F 100% 30.15 in 0.2 mi Calm Calm - N/A Fog Fog
9:55 AM 39.4 °F - 39.2 °F 99% 30.15 in 0.2 mi Calm Calm - N/A Fog Fog
10:09 AM 39.2 °F - 39.2 °F 100% 30.14 in 0.2 mi Calm Calm - N/A Fog Fog
10:25 AM 41.0 °F - 41.0 °F 100% 30.14 in 0.2 mi Calm Calm - N/A Fog Fog
10:43 AM 42.8 °F 41.1 °F 41.0 °F 93% 30.14 in 0.2 mi SSW 3.5 mph - N/A Fog Fog
10:55 AM 42.4 °F 40.7 °F 42.1 °F 99% 30.14 in 0.2 mi SSW 3.5 mph - N/A Fog Fog
11:02 AM 42.8 °F 40.1 °F 42.8 °F 100% 30.14 in 0.2 mi SSW 4.6 mph - N/A Fog Fog
11:03 AM 42.8 °F 40.1 °F 42.8 °F 100% 30.14 in 0.2 mi SSW 4.6 mph - N/A Fog Fog
11:12 AM 42.8 °F 41.1 °F 42.8 °F 100% 30.14 in 0.2 mi SSW 3.5 mph - N/A Fog Fog
11:13 AM 42.8 °F 40.1 °F 42.8 °F 100% 30.14 in 0.2 mi South 4.6 mph - N/A Fog Fog
11:14 AM 42.8 °F 40.1 °F 42.8 °F 100% 30.14 in 0.2 mi South 4.6 mph - N/A Fog Fog
11:15 AM 42.8 °F 40.1 °F 42.8 °F 100% 30.14 in 0.5 mi South 4.6 mph - N/A Fog Fog
11:19 AM 42.8 °F 40.1 °F 42.8 °F 100% 30.13 in 0.8 mi SSW 4.6 mph - N/A   Mist
11:21 AM 42.8 °F 40.1 °F 42.8 °F 100% 30.13 in 1.0 mi South 4.6 mph - N/A   Mist
11:23 AM 42.8 °F 40.1 °F 42.8 °F 100% 30.12 in 1.2 mi South 4.6 mph - N/A   Overcast
11:24 AM 42.8 °F 40.1 °F 42.8 °F 100% 30.12 in 1.0 mi South 4.6 mph - N/A   Mist
11:26 AM 42.8 °F 40.1 °F 42.8 °F 100% 30.12 in 0.8 mi South 4.6 mph - N/A   Mist
11:28 AM 42.8 °F 40.1 °F 42.8 °F 100% 30.12 in 0.5 mi South 4.6 mph - N/A Fog Fog
11:31 AM 42.8 °F 39.3 °F 42.8 °F 100% 30.12 in 0.2 mi South 5.8 mph - N/A Fog Fog
11:32 AM 42.8 °F 38.6 °F 42.8 °F 100% 30.12 in 0.2 mi South 6.9 mph - N/A Fog Fog
11:33 AM 42.8 °F 38.6 °F 42.8 °F 100% 30.12 in 0.2 mi South 6.9 mph - N/A Fog Fog
11:35 AM 42.8 °F 40.1 °F 42.8 °F 100% 30.12 in 0.2 mi South 4.6 mph - N/A Fog Fog
11:39 AM 42.8 °F 38.0 °F 42.8 °F 100% 30.12 in 0.2 mi South 8.1 mph - N/A Fog Fog
11:40 AM 42.8 °F 38.0 °F 42.8 °F 100% 30.12 in 0.2 mi South 8.1 mph - N/A Fog Fog
11:48 AM 42.8 °F 38.6 °F 42.8 °F 100% 30.11 in 0.2 mi South 6.9 mph - N/A Fog Fog
11:50 AM 42.8 °F 38.6 °F 42.8 °F 100% 30.11 in 0.2 mi South 6.9 mph - N/A Fog Fog
11:51 AM 42.8 °F 38.6 °F 42.8 °F 100% 30.11 in 0.2 mi South 6.9 mph - N/A Fog Fog
11:55 AM 42.6 °F 39.0 °F 42.4 °F 99% 30.11 in 0.2 mi SSE 5.8 mph - N/A Fog Fog
12:09 PM 42.8 °F 38.6 °F 42.8 °F 100% 30.10 in 0.2 mi SSE 6.9 mph - N/A Fog Fog
12:13 PM 42.8 °F 38.6 °F 42.8 °F 100% 30.09 in 0.2 mi SSE 6.9 mph - N/A Fog Fog
12:14 PM 42.8 °F 38.6 °F 42.8 °F 100% 30.09 in 0.2 mi South 6.9 mph - N/A Fog Fog
12:18 PM 42.8 °F 38.0 °F 42.8 °F 100% 30.09 in 0.2 mi SSE 8.1 mph - N/A Fog Fog
12:20 PM 42.8 °F 38.0 °F 42.8 °F 100% 30.09 in 0.2 mi South 8.1 mph - N/A Fog Fog
12:29 PM 42.8 °F 40.1 °F 42.8 °F 100% 30.09 in 0.2 mi South 4.6 mph - N/A Fog Fog
12:32 PM 42.8 °F 38.6 °F 42.8 °F 100% 30.09 in 0.2 mi South 6.9 mph - N/A Fog Fog
12:42 PM 42.8 °F 38.6 °F 42.8 °F 100% 30.09 in 0.2 mi South 6.9 mph - N/A Fog Fog
12:52 PM 42.8 °F 38.0 °F 42.8 °F 100% 30.09 in 0.2 mi South 8.1 mph - N/A Fog Fog
12:55 PM 43.0 °F 38.2 °F 42.8 °F 99% 30.09 in 0.2 mi South 8.1 mph - N/A Fog Fog
1:05 PM 42.8 °F 38.0 °F 42.8 °F 100% 30.09 in 0.2 mi South 8.1 mph - N/A Fog Fog
1:16 PM 42.8 °F 38.0 °F 42.8 °F 100% 30.08 in 0.2 mi South 8.1 mph - N/A Fog Fog
1:19 PM 42.8 °F 38.0 °F 42.8 °F 100% 30.08 in 0.2 mi South 8.1 mph - N/A Fog Fog
1:39 PM 42.8 °F 37.0 °F 42.8 °F 100% 30.07 in 0.2 mi South 10.4 mph - N/A Fog Fog
1:43 PM 42.8 °F 37.0 °F 42.8 °F 100% 30.06 in 0.2 mi SSE 10.4 mph - N/A Fog Fog
1:44 PM 42.8 °F 37.0 °F 42.8 °F 100% 30.06 in 0.2 mi SSE 10.4 mph - N/A Fog Fog
1:45 PM 42.8 °F 37.0 °F 42.8 °F 100% 30.06 in 0.2 mi SSE 10.4 mph - N/A Fog Fog
1:48 PM 42.8 °F 38.0 °F 42.8 °F 100% 30.06 in 0.5 mi SSE 8.1 mph - N/A Fog Fog
1:51 PM 42.8 °F 38.0 °F 42.8 °F 100% 30.06 in 0.5 mi South 8.1 mph - N/A Fog Fog
1:52 PM 42.8 °F 38.0 °F 42.8 °F 100% 30.06 in 0.5 mi South 8.1 mph - N/A Fog Fog
1:53 PM 42.8 °F 38.0 °F 42.8 °F 100% 30.06 in 0.5 mi South 8.1 mph - N/A Fog Fog
1:55 PM 43.2 °F 38.4 °F 42.8 °F 99% 30.06 in 0.5 mi South 8.1 mph - N/A Fog Fog
2:01 PM 42.8 °F 37.5 °F 42.8 °F 100% 30.06 in 1.0 mi SSE 9.2 mph - N/A   Mist
2:05 PM 42.8 °F 38.6 °F 42.8 °F 100% 30.06 in 1.0 mi SSE 6.9 mph - N/A   Mist
2:07 PM 42.8 °F 38.0 °F 42.8 °F 100% 30.06 in 1.0 mi South 8.1 mph - N/A   Mist
2:10 PM 42.8 °F 38.6 °F 42.8 °F 100% 30.06 in 1.2 mi South 6.9 mph - N/A   Overcast
2:13 PM 42.8 °F 40.1 °F 42.8 °F 100% 30.06 in 1.5 mi South 4.6 mph - N/A   Overcast
2:17 PM 42.8 °F 39.3 °F 42.8 °F 100% 30.06 in 1.8 mi South 5.8 mph - N/A   Overcast
2:21 PM 42.8 °F 38.0 °F 42.8 °F 100% 30.06 in 2.0 mi South 8.1 mph - N/A   Overcast
2:25 PM 42.8 °F 38.0 °F 42.8 °F 100% 30.06 in 2.5 mi South 8.1 mph - N/A   Overcast
2:26 PM 42.8 °F 38.0 °F 42.8 °F 100% 30.06 in 0.5 mi South 8.1 mph - N/A   Overcast
2:38 PM 42.8 °F 38.0 °F 42.8 °F 100% 30.03 in 1.5 mi South 8.1 mph - N/A   Overcast
2:50 PM 42.8 °F 38.6 °F 42.8 °F 100% 30.04 in 3.0 mi South 6.9 mph - N/A   Overcast
2:55 PM 43.7 °F 40.3 °F 43.3 °F 99% 30.05 in 3.0 mi SSW 5.8 mph - N/A   Overcast
3:07 PM 42.8 °F 40.1 °F 42.8 °F 100% 30.06 in 4.0 mi WSW 4.6 mph - N/A   Overcast
3:27 PM 42.8 °F 40.1 °F 42.8 °F 100% 30.06 in 2.5 mi SSW 4.6 mph - N/A   Overcast
3:55 PM 43.9 °F 42.3 °F 43.5 °F 99% 30.05 in 2.5 mi South 3.5 mph - N/A   Overcast
3:57 PM 42.8 °F 39.3 °F 42.8 °F 100% 30.04 in 2.5 mi SSE 5.8 mph - N/A   Overcast
4:29 PM 44.6 °F 43.1 °F 42.8 °F 93% 30.04 in 1.5 mi South 3.5 mph - N/A   Overcast
4:31 PM 44.6 °F - 44.6 °F 100% 30.04 in 1.5 mi Calm Calm - N/A   Overcast
4:46 PM 42.8 °F - 42.8 °F 100% 30.03 in 1.0 mi Calm Calm - N/A   Overcast
4:49 PM 42.8 °F - 42.8 °F 100% 30.03 in 0.8 mi Calm Calm - N/A   Overcast
4:55 PM 43.7 °F 40.3 °F 43.3 °F 99% 30.03 in 0.8 mi SSE 5.8 mph - N/A   Overcast
4:59 PM 42.8 °F 38.6 °F 42.8 °F 100% 30.02 in 1.5 mi SSE 6.9 mph - N/A   Overcast
5:31 PM 44.6 °F 40.7 °F 44.6 °F 100% 30.04 in 1.8 mi South 6.9 mph - N/A   Overcast
5:48 PM 44.6 °F 40.7 °F 44.6 °F 100% 30.04 in 4.0 mi South 6.9 mph - N/A   Overcast
5:55 PM 45.1 °F 42.0 °F 45.0 °F 99% 30.04 in 4.0 mi South 5.8 mph - N/A   Overcast
6:21 PM 44.6 °F 41.4 °F 44.6 °F 100% 30.04 in 5.0 mi South 5.8 mph - N/A   Overcast
6:29 PM 44.6 °F 40.7 °F 44.6 °F 100% 30.05 in 10.0 mi SSW 6.9 mph - N/A   Overcast
6:55 PM 45.1 °F 40.8 °F 45.0 °F 99% 30.05 in 5.0 mi South 8.1 mph - N/A   Overcast
7:52 PM 44.6 °F 39.7 °F 44.6 °F 100% 30.04 in 5.0 mi South 9.2 mph - N/A   Overcast
7:55 PM 45.1 °F 40.3 °F 45.0 °F 99% 30.04 in 5.0 mi South 9.2 mph - N/A   Overcast
8:46 PM 44.6 °F 39.7 °F 44.6 °F 100% 30.02 in 4.0 mi South 9.2 mph - N/A   Overcast
8:55 PM 45.1 °F 40.8 °F 45.0 °F 99% 30.02 in 4.0 mi South 8.1 mph - N/A   Overcast
9:55 PM 45.9 °F 40.8 °F 45.7 °F 99% 30.01 in 4.0 mi South 10.4 mph - N/A   Overcast
10:46 PM 46.4 °F 41.9 °F 44.6 °F 93% 30.00 in 2.5 mi South 9.2 mph - N/A   Overcast
10:51 PM 46.4 °F 42.4 °F 44.6 °F 93% 30.00 in 2.0 mi South 8.1 mph - N/A   Overcast
10:55 PM 45.7 °F 41.0 °F 45.5 °F 99% 30.00 in 2.0 mi South 9.2 mph - N/A   Overcast
10:56 PM 46.4 °F 42.4 °F 44.6 °F 93% 30.00 in 1.8 mi South 8.1 mph - N/A   Overcast
11:02 PM 46.4 °F 42.4 °F 44.6 °F 93% 30.00 in 2.0 mi South 8.1 mph - N/A   Overcast
11:20 PM 46.4 °F 43.5 °F 44.6 °F 93% 30.00 in 1.8 mi South 5.8 mph - N/A   Overcast
11:22 PM 46.4 °F 44.3 °F 44.6 °F 93% 30.00 in 1.5 mi South 4.6 mph - N/A   Overcast
11:24 PM 46.4 °F 44.3 °F 44.6 °F 93% 30.01 in 1.2 mi SSW 4.6 mph - N/A   Overcast
11:25 PM 46.4 °F 43.5 °F 44.6 °F 93% 30.01 in 1.2 mi SSW 5.8 mph - N/A   Overcast
11:27 PM 46.4 °F 43.5 °F 44.6 °F 93% 30.01 in 1.0 mi SSW 5.8 mph - N/A   Mist
11:31 PM 46.4 °F 43.5 °F 44.6 °F 93% 30.00 in 0.8 mi South 5.8 mph - N/A   Mist
11:36 PM 46.4 °F 44.3 °F 44.6 °F 93% 30.01 in 0.8 mi South 4.6 mph - N/A   Mist
11:53 PM 46.4 °F 45.2 °F 44.6 °F 93% 30.00 in 0.5 mi South 3.5 mph - N/A Fog Fog
11:55 PM 45.7 °F 44.4 °F 45.3 °F 99% 30.00 in 0.5 mi South 3.5 mph - N/A Fog Fog